HUSKYSAT-1 (45119 NORAD) Tracking and Keplerian Element Data

This shows tracking and keplerian element data for the satellite.

Feedback or suggestion? Click here.




ElementValue
Catalog45119
NameHUSKYSAT-1
Epoch Orbit4081
Epoch Day297.75561047
Epoch Year2020
RAAN103.1096
Inclination51.6419
Eccentricity0.0012521
Argument of Perigee154.0629
Mean Anonmoly206.0983
Mean Motion15.34036694
Decay Rate3.636E-05
L11 45119U 19071J 20297.75561047 .00003636 00000-0 11988-3 0 9991
L22 45119 51.6419 103.1096 0012521 154.0629 206.0983 15.34036694 40818

Live tracking and technical data element details for HUSKYSAT-1 (NORAD 45119). HUSKYSAT-1 can be tracked NOW for your location showing map with azimuth and elevation plus other details from your city location.

Track the satellite on the map from your city or location and see movement details for azimuth, elevation, latitude, longitude, range, height, and movement on the map or in text.







IsCatalogInMostPopularTable: catalog: 45119, numindb: 75
Update: records affected: 1



GetName: 45119 HUSKYSAT-1

Hit Count: updated at: Sun, 25 Oct 2020 07:13:58 GMT